Weather History for Trinidad, CO

Change the Weather History Date:

Thursday, September 27, 2012

  Actual Average Record
Temperature  
Mean Temperature 59 °F 60 °F  
Max Temperature 74 °F 75 °F 93 °F (1953)
Min Temperature 44 °F 44 °F 28 °F (1996)
Degree Days  
Heating Degree Days 6 6  
Month to date heating degree days 62 80  
Since 1 July heating degree days 62 90  
Cooling Degree Days 0 1  
Month to date cooling degree days 90 73  
Year to date cooling degree days 1175 715  
Growing Degree Days 8 (Base 50)    
Moisture  
Dew Point 44 °F    
Average Humidity 67    
Maximum Humidity 92    
Minimum Humidity 41    
Precipitation  
Precipitation T in 0.03 in 0.59 in (1976)
Month to date precipitation 0.60 1.15  
Year to date precipitation 11.61  
Sea Level Pressure  
Sea Level Pressure 30.12 in    
Wind  
Wind Speed 7 mph (WNW)    
Max Wind Speed 23 mph    
Max Gust Speed 30 mph    
Visibility 10 miles    
Events Thunderstorm    
T = Trace of Precipitation, MM = Missing Value Source: NWS Daily Summary

Daily Weather History Graph

Daily Weather History Graph

Search for Another Location

Airport:

Trip Planner

Search our weather history database for the weather conditions in past years. The results will help you decide how hot, cold, wet, or windy it might be!

Date:

Astronomy

Sep. 27, 2012 Rise Set
Actual Time 6:49 AM MDT 6:45 PM MDT
Civil Twilight 6:23 AM MDT 7:11 PM MDT
Nautical Twilight 5:53 AM MDT 7:41 PM MDT
Astronomical Twilight 5:22 AM MDT 8:12 PM MDT
Moon 5:16 PM MDT (9/27) 4:23 AM MDT (9/27)
Length of Visible Light 12h 47m
Length of Day
11h 55m
Waxing Gibbous, 94% of the Moon is Illuminated
Sep 27
Waxing Gibbous
Sep 29
Full
Oct 8
Last Quarter
Oct 15
New
Oct 21
First Quarter

Hourly Weather History & Observations

Time (MDT) Temp. Windchill Dew Point Humidity Pressure Visibility Wind Dir Wind Speed Gust Speed Precip Events Conditions
12:54 AM 48.9 °F - 44.1 °F 83% 30.07 in 10.0 mi Calm Calm - N/A   Partly Cloudy
1:54 AM 50.0 °F - 44.1 °F 80% 30.08 in 10.0 mi Calm Calm - N/A   Clear
2:54 AM 45.0 °F 41.8 °F 42.1 °F 90% 30.08 in 10.0 mi WSW 5.8 mph - N/A   Mostly Cloudy
3:54 AM 45.0 °F 42.6 °F 42.1 °F 90% 30.07 in 10.0 mi West 4.6 mph - N/A   Clear
4:31 AM 44.6 °F 41.4 °F 42.8 °F 93% 30.22 in 10.0 mi West 5.8 mph - N/A   Mostly Cloudy
4:54 AM 46.0 °F 43.1 °F 42.1 °F 86% 30.10 in 10.0 mi West 5.8 mph - N/A   Overcast
5:54 AM 45.0 °F 41.2 °F 42.1 °F 90% 30.12 in 10.0 mi West 6.9 mph - N/A   Overcast
6:51 AM 44.6 °F 40.7 °F 42.8 °F 93% 30.25 in 10.0 mi WSW 6.9 mph - N/A   Overcast
6:54 AM 45.0 °F 41.8 °F 42.1 °F 90% 30.14 in 10.0 mi WSW 5.8 mph - N/A   Overcast
7:22 AM 46.4 °F 43.5 °F 42.8 °F 87% 30.25 in 10.0 mi WSW 5.8 mph - N/A   Overcast
7:54 AM 46.9 °F - 43.0 °F 86% 30.16 in 10.0 mi West 6.9 mph - N/A   Overcast
8:07 AM 50.0 °F - 44.6 °F 82% 30.26 in 10.0 mi WSW 9.2 mph - N/A   Overcast
8:54 AM 52.0 °F - 44.1 °F 74% 30.15 in 10.0 mi WSW 9.2 mph - N/A   Overcast
9:54 AM 55.9 °F - 46.0 °F 69% 30.13 in 10.0 mi Calm Calm - N/A   Overcast
10:32 AM 59.0 °F - 48.2 °F 67% 30.25 in 10.0 mi SE 4.6 mph - N/A   Partly Cloudy
10:54 AM 61.0 °F - 48.0 °F 62% 30.09 in 10.0 mi East 5.8 mph - N/A   Partly Cloudy
11:54 AM 64.9 °F - 46.9 °F 52% 30.05 in 10.0 mi North 6.9 mph - N/A   Clear
12:54 PM 71.1 °F - 46.0 °F 41% 30.01 in 10.0 mi Variable 5.8 mph - N/A   Clear
1:37 PM 71.6 °F - 44.6 °F 38% 30.17 in 10.0 mi NNE 8.1 mph - N/A Thunderstorm Scattered Clouds
1:54 PM 73.0 °F - 44.1 °F 35% 29.97 in 10.0 mi North 9.2 mph - N/A Thunderstorm Mostly Cloudy
2:19 PM 73.4 °F - 42.8 °F 33% 30.15 in 10.0 mi North 16.1 mph 23.0 mph N/A   Mostly Cloudy
2:37 PM 73.4 °F - 41.0 °F 31% 30.13 in 10.0 mi NE 15.0 mph - N/A   Mostly Cloudy
2:54 PM 72.0 °F - 36.0 °F 27% 29.97 in 10.0 mi NE 13.8 mph - N/A   Scattered Clouds
3:11 PM 71.6 °F - 37.4 °F 29% 30.12 in 10.0 mi ENE 9.2 mph - N/A Thunderstorm Partly Cloudy
3:54 PM 66.9 °F - 44.1 °F 44% 29.99 in 10.0 mi NNE 9.2 mph - N/A Thunderstorm Scattered Clouds
4:05 PM 68.0 °F - 42.8 °F 40% 30.14 in 10.0 mi North 5.8 mph - N/A   Scattered Clouds
4:54 PM 69.1 °F - 41.0 °F 36% 29.97 in 10.0 mi SSE 3.5 mph - N/A   Scattered Clouds
5:54 PM 66.9 °F - 46.0 °F 47% 29.99 in 10.0 mi South 11.5 mph - N/A   Clear
6:54 PM 63.0 °F - 45.0 °F 52% 30.00 in 10.0 mi SSW 3.5 mph - N/A   Overcast
7:54 PM 62.1 °F - 45.0 °F 53% 30.02 in 10.0 mi Calm Calm - N/A   Overcast
8:54 PM 57.0 °F - 46.9 °F 69% 30.07 in 10.0 mi North 13.8 mph - 0.00 in   Partly Cloudy
9:29 PM 55.4 °F - 46.4 °F 72% 30.23 in 10.0 mi NNW 10.4 mph - N/A Thunderstorm Clear
9:37 PM 53.6 °F - 48.2 °F 82% 30.24 in 10.0 mi NNW 10.4 mph - N/A Thunderstorm Scattered Clouds
9:42 PM 53.6 °F - 48.2 °F 82% 30.25 in 10.0 mi NNW 9.2 mph - N/A   Mostly Cloudy
9:54 PM 54.0 °F - 48.9 °F 83% 30.12 in 10.0 mi NW 8.1 mph - N/A   Mostly Cloudy
10:24 PM 53.6 °F - 48.2 °F 82% 30.27 in 10.0 mi NW 6.9 mph - N/A   Mostly Cloudy
10:54 PM 54.0 °F - 48.9 °F 83% 30.11 in 10.0 mi WNW 6.9 mph - N/A   Overcast
11:13 PM 53.6 °F - 48.2 °F 82% 30.27 in 10.0 mi West 6.9 mph - 0.00 in   Overcast
11:54 PM 53.1 °F - 46.9 °F 80% 30.10 in 10.0 mi WNW 8.1 mph - 0.00 in   Scattered Clouds